Flag for Canada Weather past 2 weeks in Pickering, Ontario, Canada

Now
N/A

Sprinkles.


Feels Like: N/A
Forecast: 62 / 74 °F
Wind: 3 mph from West

Location: Toronto Buttonville

Current Time: Sep 2, 2014 at 1:23:51 PM

Latest Report: Sep 2, 2014 at 12:45 PM


Visibility: 5 mi

Pressure: N/A

Humidity: N/A

Dew point: N/A

Location of PickeringLocation

Historic Weather in Pickering — Graph

°F

Pickering temperature yesterday

Maximum temperature yesterday: 79 °F (at 2:00 PM)
Minimum temperature yesterday: 61 °F (at 5:00 AM)
Average temperature yesterday: 71 °F

Past Weeks' High & Low Weather Summary

 TemperatureHumidityPressure
High88 °F (Aug 26, 6:00 PM)100% (Aug 19, 12:00 AM)30.21 "Hg (Aug 19, 12:00 AM)
Low50 °F (Aug 19, 4:00 AM)38% (Aug 28, 4:00 PM)29.77 "Hg (Sep 2, 12:00 AM)
Average68 °F76%30.01 "Hg
* Reported Aug 18 12:00 Noon — Sep 2 12:00 Noon, Pickering, Weather by CustomWeather, © 2014

Note: Actual official high and low records may vary slightly from our data, if they occured in-between our weather recording intervals... More about our weather records

Advertising

Pickering weather history for previous 24 hours

 ConditionsComfort  
Time TempWeatherWind HumidityBarometerVisibility
12:00 PM
Sep 2
77 °FMostly cloudy.8 mph69%29.82 "Hg12 mi
11:00 AM77 °FMostly cloudy.8 mph74%29.84 "Hg12 mi
10:00 AM77 °FBroken clouds.5 mph74%29.83 "Hg12 mi
9:00 AM75 °FScattered clouds.5 mph78%29.83 "Hg10 mi
8:00 AM72 °FPartly sunny.3 mph88%29.84 "Hg8 mi
7:00 AM66 °FFog.No wind94%29.84 "Hg6 mi
6:00 AM68 °FPassing clouds.No wind94%29.82 "Hg8 mi
5:00 AM70 °FClear.5 mph88%29.80 "Hg10 mi
4:00 AM70 °FClear.6 mph88%29.79 "Hg10 mi
3:00 AM70 °FClear.7 mph88%29.78 "Hg12 mi
2:00 AM72 °FMostly cloudy.10 mph88%29.78 "Hg12 mi
1:00 AM73 °FMostly cloudy.10 mph89%29.77 "Hg12 mi
12:00 AM73 °FMostly cloudy.10 mph89%29.77 "Hg10 mi
11:00 PM
Sep 1
75 °FSprinkles. Overcast.10 mph83%29.80 "Hg7 mi
10:00 PM77 °FOvercast.8 mph74%29.79 "Hg12 mi
9:00 PM75 °FPassing clouds.5 mph78%29.82 "Hg12 mi
8:00 PM79 °FScattered clouds.8 mph70%29.82 "Hg12 mi
7:00 PM79 °FPartly sunny.14 mph70%29.81 "Hg15 mi
6:00 PM79 °FBroken clouds.14 mph74%29.81 "Hg15 mi
5:00 PM79 °FPartly sunny.10 mph74%29.81 "Hg15 mi
4:03 PMN/ASprinkles.12 mphN/AN/A15 mi
3:00 PM79 °FPartly sunny.10 mph74%29.85 "Hg15 mi
2:00 PM79 °FPartly sunny.14 mph74%29.88 "Hg15 mi
1:00 PM77 °FMostly cloudy.10 mph79%29.90 "Hg12 mi
Weather by CustomWeather, © 2014

See weather overviewHow to use our weather pages